When you browse on this site, cookies collect data to enhance your experience and personalize the content and advertising you see.
Visit our Privacy Policy to learn more. By continuing to use the site, you agree to this use of cookies and data.
  • In United Kingdom
  • List of Countries
  • For 7 days
  • Water Temperature
  • Weather Map
  • Weather Widgets
  • user-avatar
    Login

    Hourly Weather Keszthely

    Today, 18 September, Wednesday

    Time Temperature Precipitation Wind Pressure Humidity
    00:00 +16°C° 0.1 mm 5 mps 751 mmHg 75%
    01:00 +15°C° 0 mm 5 mps 751 mmHg 75%
    02:00 +14°C° 0 mm 5 mps 752 mmHg 74%
    03:00 +14°C° 0 mm 5 mps 752 mmHg 73%
    04:00 +13°C° 0 mm 5 mps 753 mmHg 72%
    05:00 +13°C° 0 mm 6 mps 754 mmHg 67%
    06:00 +12°C° 0 mm 7 mps 755 mmHg 62%
    07:00 +12°C° 0 mm 8 mps 756 mmHg 56%
    08:00 +14°C° 0 mm 7 mps 756 mmHg 50%
    09:00 +15°C° 0 mm 6 mps 757 mmHg 43%
    10:00 +16°C° 0 mm 5 mps 757 mmHg 37%
    11:00 +17°C° 0 mm 5 mps 757 mmHg 34%
    12:00 +18°C° 0 mm 4 mps 757 mmHg 30%
    13:00 +19°C° 0 mm 3 mps 757 mmHg 26%
    14:00 +19°C° 0 mm 3 mps 757 mmHg 26%
    15:00 +19°C° 0 mm 2 mps 756 mmHg 26%
    16:00 +19°C° 0 mm 2 mps 756 mmHg 25%
    17:00 +17°C° 0 mm 2 mps 756 mmHg 36%
    18:00 +15°C° 0 mm 2 mps 756 mmHg 47%
    19:00 +13°C° 0 mm 2 mps 756 mmHg 57%
    20:00 +12°C° 0 mm 1 mps 757 mmHg 62%
    21:00 +12°C° 0 mm 1 mps 757 mmHg 66%
    22:00 +11°C° 0 mm 1 mps 757 mmHg 70%
    23:00 +11°C° 0 mm 1 mps 757 mmHg 71%

    Tomorrow, 19 September, Thursday

    Time Temperature Precipitation Wind Pressure Humidity
    00:00 +11°C° 0 mm 1 mps 757 mmHg 72%
    01:00 +10°C° 0 mm 1 mps 757 mmHg 73%
    02:00 +9°C° 0 mm 2 mps 757 mmHg 72%
    03:00 +9°C° 0 mm 2 mps 757 mmHg 70%
    04:00 +9°C° 0 mm 2 mps 757 mmHg 69%
    05:00 +9°C° 0 mm 3 mps 757 mmHg 66%
    06:00 +10°C° 0 mm 3 mps 758 mmHg 64%
    07:00 +11°C° 0 mm 4 mps 758 mmHg 61%
    08:00 +12°C° 0 mm 4 mps 758 mmHg 54%
    09:00 +14°C° 0 mm 4 mps 758 mmHg 48%
    10:00 +15°C° 0 mm 5 mps 759 mmHg 41%
    11:00 +16°C° 0 mm 5 mps 759 mmHg 38%
    12:00 +17°C° 0 mm 5 mps 758 mmHg 36%
    13:00 +19°C° 0 mm 5 mps 758 mmHg 34%
    14:00 +19°C° 0 mm 5 mps 758 mmHg 33%
    15:00 +17°C° 0 mm 5 mps 758 mmHg 32%
    16:00 +17°C° 0 mm 5 mps 758 mmHg 31%
    17:00 +15°C° 0 mm 4 mps 758 mmHg 37%
    18:00 +13°C° 0 mm 4 mps 758 mmHg 43%
    19:00 +11°C° 0 mm 3 mps 759 mmHg 49%
    20:00 +10°C° 0 mm 3 mps 759 mmHg 53%
    21:00 +10°C° 0 mm 2 mps 759 mmHg 56%
    22:00 +9°C° 0 mm 2 mps 760 mmHg 59%
    23:00 +8°C° 0 mm 2 mps 760 mmHg 62%

    Day after tomorrow, 20 September, Friday

    Time Temperature Precipitation Wind Pressure Humidity
    00:00 +8°C° 0 mm 2 mps 760 mmHg 65%
    01:00 +7°C° 0 mm 2 mps 760 mmHg 68%
    02:00 +7°C° 0 mm 2 mps 760 mmHg 72%
    03:00 +6°C° 0 mm 2 mps 760 mmHg 75%
    04:00 +6°C° 0 mm 2 mps 760 mmHg 79%
    05:00 +7°C° 0 mm 2 mps 760 mmHg 76%
    06:00 +8°C° 0 mm 2 mps 760 mmHg 74%
    07:00 +8°C° 0 mm 2 mps 760 mmHg 72%
    08:00 +12°C° 0 mm 2 mps 760 mmHg 63%
    09:00 +14°C° 0 mm 2 mps 760 mmHg 54%
    10:00 +16°C° 0 mm 2 mps 760 mmHg 46%
    11:00 +17°C° 0 mm 2 mps 760 mmHg 41%
    12:00 +19°C° 0 mm 2 mps 760 mmHg 36%
    13:00 +20°C° 0 mm 2 mps 759 mmHg 31%
    14:00 +21°C° 0 mm 1 mps 759 mmHg 31%
    15:00 +21°C° 0 mm 1 mps 758 mmHg 30%
    16:00 +21°C° 0 mm 1 mps 758 mmHg 29%
    17:00 +19°C° 0 mm 1 mps 758 mmHg 34%
    18:00 +16°C° 0 mm 1 mps 758 mmHg 39%
    19:00 +14°C° 0 mm 1 mps 759 mmHg 44%
    20:00 +13°C° 0 mm 1 mps 759 mmHg 46%
    21:00 +12°C° 0 mm 1 mps 759 mmHg 48%
    22:00 +11°C° 0 mm 1 mps 759 mmHg 50%
    23:00 +11°C° 0 mm 1 mps 759 mmHg 52%

    21 September, Saturday

    Time Temperature Precipitation Wind Pressure Humidity
    00:00 +10°C° 0 mm 1 mps 759 mmHg 53%
    01:00 +10°C° 0 mm 1 mps 759 mmHg 55%
    02:00 +10°C° 0 mm 1 mps 759 mmHg 56%
    03:00 +9°C° 0 mm 1 mps 759 mmHg 57%
    04:00 +9°C° 0 mm 1 mps 759 mmHg 58%
    05:00 +10°C° 0 mm 1 mps 759 mmHg 56%
    06:00 +11°C° 0 mm 1 mps 759 mmHg 54%
    07:00 +11°C° 0 mm 1 mps 759 mmHg 52%
    08:00 +14°C° 0 mm 2 mps 759 mmHg 45%
    09:00 +17°C° 0 mm 3 mps 759 mmHg 39%
    10:00 +19°C° 0 mm 3 mps 759 mmHg 32%
    11:00 +20°C° 0 mm 4 mps 758 mmHg 29%
    12:00 +21°C° 0 mm 4 mps 758 mmHg 27%
    13:00 +22°C° 0 mm 4 mps 758 mmHg 25%
    14:00 +22°C° 0 mm 4 mps 757 mmHg 25%
    15:00 +22°C° 0 mm 4 mps 757 mmHg 26%
    16:00 +22°C° 0 mm 4 mps 756 mmHg 26%
    17:00 +20°C° 0 mm 3 mps 756 mmHg 31%
    18:00 +17°C° 0 mm 3 mps 756 mmHg 36%
    19:00 +15°C° 0 mm 2 mps 756 mmHg 42%
    20:00 +14°C° 0 mm 2 mps 756 mmHg 43%
    21:00 +13°C° 0 mm 2 mps 756 mmHg 44%
    22:00 +13°C° 0 mm 2 mps 756 mmHg 45%
    23:00 +12°C° 0 mm 2 mps 756 mmHg 44%

    22 September, Sunday

    Time Temperature Precipitation Wind Pressure Humidity
    00:00 +12°C° 0 mm 2 mps 755 mmHg 44%
    01:00 +12°C° 0 mm 2 mps 755 mmHg 44%
    02:00 +10°C° 0 mm 2 mps 755 mmHg 45%
    03:00 +10°C° 0 mm 2 mps 754 mmHg 46%
    04:00 +10°C° 0 mm 2 mps 754 mmHg 47%
    05:00 +10°C° 0 mm 3 mps 754 mmHg 46%
    06:00 +11°C° 0 mm 3 mps 753 mmHg 45%
    07:00 +12°C° 0 mm 3 mps 753 mmHg 44%
    08:00 +14°C° 0 mm 3 mps 753 mmHg 41%
    09:00 +18°C° 0 mm 4 mps 753 mmHg 39%
    10:00 +21°C° 0 mm 4 mps 753 mmHg 36%
    11:00 +22°C° 0 mm 5 mps 752 mmHg 38%
    12:00 +24°C° 0 mm 6 mps 752 mmHg 39%
    13:00 +26°C° 0 mm 6 mps 751 mmHg 41%
    14:00 +26°C° 0 mm 6 mps 751 mmHg 44%
    15:00 +26°C° 0 mm 6 mps 750 mmHg 47%
    16:00 +26°C° 0 mm 5 mps 750 mmHg 50%
    17:00 +23°C° 0 mm 4 mps 750 mmHg 58%
    18:00 +21°C° 0 mm 4 mps 750 mmHg 65%
    19:00 +19°C° 0 mm 3 mps 750 mmHg 73%
    20:00 +19°C° 0 mm 3 mps 750 mmHg 77%
    21:00 +18°C° 0 mm 3 mps 750 mmHg 82%
    22:00 +18°C° 0 mm 3 mps 750 mmHg 86%
    23:00 +17°C° 0 mm 2 mps 749 mmHg 87%

    23 September, Monday

    Time Temperature Precipitation Wind Pressure Humidity
    00:00 +17°C° 0 mm 2 mps 749 mmHg 87%
    01:00 +16°C° 0 mm 2 mps 749 mmHg 88%
    02:00 +16°C° 0 mm 2 mps 749 mmHg 89%
    03:00 +16°C° 0 mm 2 mps 749 mmHg 90%
    04:00 +15°C° 0 mm 2 mps 748 mmHg 91%
    05:00 +16°C° 0 mm 1 mps 748 mmHg 89%
    06:00 +18°C° 0 mm 1 mps 748 mmHg 86%
    07:00 +18°C° 0 mm 1 mps 748 mmHg 84%
    08:00 +20°C° 0 mm 1 mps 749 mmHg 76%
    09:00 +20°C° 0 mm 2 mps 749 mmHg 69%
    10:00 +23°C° 0 mm 2 mps 749 mmHg 62%
    11:00 +23°C° 0.1 mm 2 mps 749 mmHg 62%
    12:00 +23°C° 0.1 mm 2 mps 749 mmHg 62%
    13:00 +21°C° 0.1 mm 2 mps 748 mmHg 63%
    14:00 +21°C° 0 mm 3 mps 749 mmHg 65%
    15:00 +20°C° 0 mm 5 mps 749 mmHg 67%
    16:00 +20°C° 0 mm 6 mps 749 mmHg 69%
    17:00 +19°C° 0.3 mm 6 mps 749 mmHg 73%
    18:00 +17°C° 0.3 mm 7 mps 749 mmHg 77%
    19:00 +15°C° 0.3 mm 8 mps 750 mmHg 81%
    20:00 +15°C° 0.2 mm 7 mps 750 mmHg 82%
    21:00 +15°C° 0.2 mm 7 mps 750 mmHg 83%
    22:00 +15°C° 0.2 mm 6 mps 751 mmHg 85%
    23:00 +15°C° 0.4 mm 6 mps 751 mmHg 87%
    Show more